timestamp,surface_pressure_avg,surface_temp_avg,battery_voltage,lat,long
2020-02-19 00:09:01+00:00,238.3248,0.18,12.73,47.84626,-54.09684
2020-02-19 00:19:01+00:00,231.2897,0.2,12.65,47.84626,-54.09684
2020-02-19 00:29:01+00:00,224.6881,0.2,12.65,47.84626,-54.09684
2020-02-19 00:39:01+00:00,223.8882,0.2,12.65,47.84626,-54.09684
2020-02-19 00:49:01+00:00,222.5865,0.2,12.65,47.84626,-54.09684
2020-02-19 00:59:01+00:00,218.6864,0.2,12.65,47.84626,-54.09684
2020-02-19 01:09:01+00:00,212.7414,0.2,12.65,47.84626,-54.09684
2020-02-19 01:19:01+00:00,211.5547,0.17,12.57,47.84626,-54.09684
2020-02-19 01:29:01+00:00,214.7481,0.14,12.57,47.84626,-54.09684
2020-02-19 01:39:01+00:00,207.9881,0.1,12.57,47.84626,-54.09684
2020-02-19 01:49:01+00:00,201.8048,0.09,12.57,47.84626,-54.09684
2020-02-19 01:59:01+00:00,206.3798,-0.0,12.57,47.84626,-54.09684
2020-02-19 02:09:01+00:00,209.5997,-0.1,12.57,47.84626,-54.09684
2020-02-19 02:19:01+00:00,206.4648,-0.3,12.57,47.84626,-54.09684
2020-02-19 02:29:01+00:00,204.0498,-0.5,12.57,47.84626,-54.09684
2020-02-19 02:39:01+00:00,211.3365,-0.5,12.57,47.84626,-54.09684
2020-02-19 02:49:01+00:00,212.2714,-0.6,12.57,47.84626,-54.09684
2020-02-19 02:59:01+00:00,206.2448,-0.6,12.57,47.84626,-54.09684
2020-02-19 03:09:01+00:00,208.9431,-0.6,12.57,47.84626,-54.09684
2020-02-19 03:19:01+00:00,218.4531,-0.5,12.57,47.84626,-54.09684
2020-02-19 03:29:01+00:00,218.7931,-0.5,12.57,47.84626,-54.09684
2020-02-19 03:39:01+00:00,216.2115,-0.6,12.57,47.84626,-54.09684
2020-02-19 03:49:01+00:00,222.3198,-0.6,12.57,47.84626,-54.09684
2020-02-19 03:59:01+00:00,228.7447,-0.6,12.57,47.84626,-54.09684
2020-02-19 04:09:01+00:00,226.9714,-0.6,12.57,47.84626,-54.09684
2020-02-19 04:19:01+00:00,228.4698,-0.68,12.57,47.84626,-54.09684
2020-02-19 04:29:01+00:00,236.1215,-0.7,12.57,47.84626,-54.09684
2020-02-19 04:39:01+00:00,242.3065,-0.7,12.57,47.84626,-54.09684
2020-02-19 04:49:01+00:00,242.9664,-0.7,12.57,47.84626,-54.09684
2020-02-19 04:59:01+00:00,246.0464,-0.7,12.57,47.84626,-54.09684
2020-02-19 05:09:01+00:00,251.1514,-0.71,12.57,47.84626,-54.09684
2020-02-19 05:19:01+00:00,255.8297,-0.71,12.57,47.84626,-54.09684
2020-02-19 05:29:01+00:00,261.3597,-0.75,12.57,47.84626,-54.09684
2020-02-19 05:39:01+00:00,269.7531,-0.76,12.57,47.84626,-54.09684
2020-02-19 05:49:01+00:00,274.1647,-0.8,12.57,47.84626,-54.09684
2020-02-19 05:59:01+00:00,274.6731,-0.8,12.57,47.84626,-54.09684
2020-02-19 06:09:01+00:00,277.028,-0.8,12.57,47.84626,-54.09684
2020-02-19 06:19:01+00:00,281.4364,-0.83,12.49,47.84626,-54.09684
2020-02-19 06:29:01+00:00,289.2531,-0.9,12.49,47.84626,-54.09684
2020-02-19 06:39:01+00:00,295.33799999999997,-0.9,12.49,47.84626,-54.09684
2020-02-19 06:49:01+00:00,301.6097,-0.9,12.49,47.84626,-54.09684
2020-02-19 06:59:01+00:00,306.428,-0.92,12.49,47.84626,-54.09684
2020-02-19 07:09:01+00:00,312.8013,-0.96,12.49,47.84626,-54.09684
2020-02-19 07:19:01+00:00,314.9631,-1.0,12.49,47.84626,-54.09684
2020-02-19 07:29:01+00:00,313.3313,-1.1,12.49,47.84626,-54.09684
2020-02-19 07:39:01+00:00,314.478,-1.2,12.49,47.84626,-54.09684
2020-02-19 07:49:01+00:00,319.0413,-1.2,12.49,47.84626,-54.09684
2020-02-19 07:59:01+00:00,319.573,-1.2,12.49,47.84626,-54.09684
2020-02-19 08:09:01+00:00,320.2096,-1.14,12.49,47.84626,-54.09684
2020-02-19 08:19:01+00:00,325.483,-0.96,12.49,47.84626,-54.09684
2020-02-19 08:29:01+00:00,325.0997,-1.0,12.49,47.84626,-54.09684
2020-02-19 08:39:01+00:00,318.21299999999997,-1.1,12.49,47.84626,-54.09684
2020-02-19 08:49:01+00:00,324.3046,-0.79,12.49,47.84626,-54.09684
2020-02-19 08:59:01+00:00,336.668,-0.14,12.49,47.84626,-54.09684
2020-02-19 09:09:01+00:00,334.8746,0.01,12.49,47.84626,-54.09684
2020-02-19 09:19:01+00:00,331.593,0.1,12.49,47.84626,-54.09684
2020-02-19 09:29:01+00:00,338.7047,0.09,12.49,47.84626,-54.09684
2020-02-19 09:39:01+00:00,335.6063,0.09,12.49,47.84626,-54.09684
2020-02-19 09:49:01+00:00,323.3729,0.1,12.49,47.84626,-54.09684
2020-02-19 09:59:01+00:00,312.5597,0.17,12.49,47.84626,-54.09684
2020-02-19 10:09:01+00:00,312.2513,0.11,12.49,47.84626,-54.09684
2020-02-19 10:19:01+00:00,309.8647,0.1,12.49,47.84626,-54.09684
2020-02-19 10:29:01+00:00,308.1246,0.12,12.49,47.84626,-54.09684
2020-02-19 10:39:01+00:00,308.493,0.11,12.49,47.84626,-54.09684
2020-02-19 10:49:01+00:00,305.4547,0.14,12.49,47.84626,-54.09684
2020-02-19 10:59:01+00:00,298.9597,0.15,12.49,47.84626,-54.09684
2020-02-19 11:09:01+00:00,292.973,0.2,12.49,47.84626,-54.09684
2020-02-19 11:19:01+00:00,289.7279,0.2,12.49,47.84626,-54.09684
2020-02-19 11:29:01+00:00,291.568,0.26,12.49,47.84626,-54.09684
2020-02-19 11:39:01+00:00,283.8781,0.3,12.49,47.84626,-54.09684
2020-02-19 11:49:01+00:00,272.3647,0.3,12.49,47.84626,-54.09684
2020-02-19 11:59:01+00:00,260.5397,0.29,12.49,47.84626,-54.09684
2020-02-19 12:09:01+00:00,250.8214,0.29,12.49,47.84626,-54.09684
2020-02-19 12:19:01+00:00,249.7131,0.18,12.49,47.84626,-54.09684
2020-02-19 12:29:01+00:00,247.6147,0.1,12.49,47.84626,-54.09684
2020-02-19 12:39:01+00:00,250.278,-0.1,12.49,47.84626,-54.09684
2020-02-19 12:49:01+00:00,252.5397,-0.1,12.49,47.84626,-54.09684
2020-02-19 12:59:01+00:00,246.8198,-0.07,12.49,47.84626,-54.09684
2020-02-19 13:09:01+00:00,238.1564,-0.05,12.49,47.84626,-54.09684
2020-02-19 13:19:01+00:00,232.5881,-0.0,12.49,47.84626,-54.09684
2020-02-19 13:29:01+00:00,231.4031,-0.1,12.49,47.84626,-54.09684
2020-02-19 13:39:01+00:00,236.0447,-0.12,12.49,47.84626,-54.09684
2020-02-19 13:49:01+00:00,237.9247,-0.04,12.49,47.84626,-54.09684
2020-02-19 13:59:01+00:00,240.4481,0.0,12.49,47.84626,-54.09684
2020-02-19 14:09:01+00:00,238.3181,0.07,12.49,47.84626,-54.09684
2020-02-19 14:19:01+00:00,234.5948,0.1,12.57,47.84626,-54.09684
2020-02-19 14:29:01+00:00,238.1314,0.1,12.57,47.84626,-54.09684
2020-02-19 14:39:01+00:00,238.5731,0.1,12.57,47.84626,-54.09684
2020-02-19 14:49:01+00:00,228.6481,0.1,12.57,47.84626,-54.09684
2020-02-19 14:59:01+00:00,222.1814,0.09,12.57,47.84626,-54.09684
2020-02-19 15:09:01+00:00,230.4681,0.0,12.57,47.84626,-54.09684
2020-02-19 15:19:01+00:00,235.4714,0.06,12.65,47.84626,-54.09684
2020-02-19 15:29:01+00:00,227.2998,0.09,12.65,47.84626,-54.09684
2020-02-19 15:39:01+00:00,232.0914,0.0,12.65,47.84626,-54.09684
2020-02-19 15:49:01+00:00,255.9731,0.0,12.65,47.84626,-54.09684
2020-02-19 15:59:01+00:00,262.1164,0.0,12.65,47.84626,-54.09684
2020-02-19 16:09:01+00:00,249.2781,0.0,12.65,47.84626,-54.09684
2020-02-19 16:19:01+00:00,244.7747,-0.02,12.73,47.84626,-54.09684
2020-02-19 16:29:01+00:00,247.0948,-0.08,12.73,47.84626,-54.09684
2020-02-19 16:39:01+00:00,240.3431,-0.07,12.73,47.84626,-54.09684
2020-02-19 16:49:01+00:00,234.8114,-0.1,12.73,47.84626,-54.09684
2020-02-19 16:59:01+00:00,240.7864,-0.1,12.73,47.84626,-54.09684
2020-02-19 17:09:01+00:00,245.9014,-0.1,12.73,47.84626,-54.09684
2020-02-19 17:19:01+00:00,249.1164,-0.07,12.65,47.84626,-54.09684
2020-02-19 17:29:01+00:00,249.5981,-0.08,12.65,47.84626,-54.09684
2020-02-19 17:39:01+00:00,251.5331,-0.06,12.65,47.84626,-54.09684
2020-02-19 17:49:01+00:00,250.0564,-0.05,12.65,47.84626,-54.09684
2020-02-19 17:59:01+00:00,241.6814,-0.03,12.65,47.84626,-54.09684
2020-02-19 18:09:01+00:00,239.9364,-0.03,12.65,47.84626,-54.09684
2020-02-19 18:19:01+00:00,238.0815,-0.03,12.65,47.84626,-54.09684
2020-02-19 18:29:01+00:00,234.6814,-0.02,12.65,47.84626,-54.09684
2020-02-19 18:39:01+00:00,237.3248,-0.02,12.65,47.84626,-54.09684
2020-02-19 18:49:01+00:00,244.2764,-0.01,12.65,47.84626,-54.09684
2020-02-19 18:59:01+00:00,242.3914,-0.0,12.65,47.84626,-54.09684
2020-02-19 19:09:01+00:00,238.5431,-0.0,12.65,47.84626,-54.09684
2020-02-19 19:19:01+00:00,242.8864,-0.0,12.57,47.84626,-54.09684
2020-02-19 19:29:01+00:00,249.7464,0.0,12.57,47.84626,-54.09684
2020-02-19 19:39:01+00:00,250.8131,0.0,12.57,47.84626,-54.09684
2020-02-19 19:49:01+00:00,244.3564,0.0,12.57,47.84626,-54.09684
2020-02-19 19:59:01+00:00,243.2298,0.0,12.57,47.84626,-54.09684
2020-02-19 20:09:01+00:00,251.3664,0.0,12.57,47.84626,-54.09684
2020-02-19 20:19:01+00:00,260.2498,0.0,12.57,47.84626,-54.09684
2020-02-19 20:29:01+00:00,266.4798,0.0,12.57,47.84626,-54.09684
2020-02-19 20:39:01+00:00,280.3047,0.0,12.57,47.84626,-54.09684
2020-02-19 20:49:01+00:00,287.0397,0.0,12.57,47.84626,-54.09684
2020-02-19 20:59:01+00:00,283.2848,0.0,12.57,47.84626,-54.09684
2020-02-19 21:09:01+00:00,277.5147,0.0,12.57,47.84626,-54.09684
2020-02-19 21:19:01+00:00,280.2147,0.0,12.57,47.84626,-54.09684
2020-02-19 21:29:01+00:00,284.1547,0.0,12.57,47.84626,-54.09684
2020-02-19 21:39:01+00:00,293.428,0.0,12.57,47.84626,-54.09684
2020-02-19 21:49:01+00:00,293.2814,0.0,12.57,47.84626,-54.09684
2020-02-19 21:59:01+00:00,290.0497,0.0,12.57,47.84626,-54.09684
2020-02-19 22:09:01+00:00,289.6814,0.0,12.57,47.84626,-54.09684
2020-02-19 22:19:01+00:00,290.1881,0.0,12.49,47.84626,-54.09684
2020-02-19 22:29:01+00:00,285.2247,0.0,12.49,47.84626,-54.09684
2020-02-19 22:39:01+00:00,278.7197,-0.01,12.49,47.84626,-54.09684
2020-02-19 22:49:01+00:00,279.3247,-0.01,12.49,47.84626,-54.09684
2020-02-19 22:59:01+00:00,280.3314,-0.01,12.49,47.84626,-54.09684
2020-02-19 23:09:01+00:00,274.3114,-0.03,12.49,47.84626,-54.09684
2020-02-19 23:19:01+00:00,261.3448,-0.03,12.49,47.84626,-54.09684
2020-02-19 23:29:01+00:00,250.5514,-0.04,12.49,47.84626,-54.09684
2020-02-19 23:39:01+00:00,245.3064,-0.04,12.49,47.84626,-54.09684
2020-02-19 23:49:01+00:00,241.5064,-0.05,12.49,47.84626,-54.09684
2020-02-19 23:59:01+00:00,229.2581,-0.06,12.49,47.84626,-54.09684
